DW0499 Weather Reports


time (UTC)temp
C
wind
direction
speed
KPH
gust
KPH
rain 1hr
cm
rain 24hr
cm
rain mn
cm
humidity
%
barometer
mb
20260505061600 -17 0 0.0 0.0 0.15 0.51 0.36 1011.4
20260505060058 -17 0 0.0 0.0 0.20 0.46 0.33 1011.6
20260505054559 -17 0 0.0 0.0 0.23 0.46 0.30 1011.6
20260505053103 -17 0 0.0 0.0 0.23 0.41 0.28 1011.7
20260505051557 -17 0 0.0 0.0 0.18 0.36 0.20 1011.7
20260505041555 -17 0 0.0 0.0 0.00 0.15 0.00 1011.8
20260505040106 -17 0 0.0 3.2 0.00 0.15 0.00 1011.9
20260505034555 -17 360 1.6 6.4 0.00 0.15 0.00 1011.9
20260505033055 -17 0 0.0 0.0 0.00 0.15 0.00 1011.9
20260505031558 -17 0 0.0 0.0 0.00 0.15 0.00 1011.9
20260505030105 -17 0 0.0 0.0 0.00 0.15 0.00 1011.9
20260505024555 -17 0 0.0 1.6 0.00 0.15 0.00 1012.0
20260505023102 -17 0 0.0 1.6 0.00 0.15 0.00 1012.1
20260505021557 -17 360 0.0 4.8 0.00 0.15 0.00 1012.2
20260505020057 -17 360 0.0 3.2 0.00 0.13 0.00 1012.4
20260505014558 -17 360 4.8 8.0 0.00 0.13 0.00 1012.4
20260505013055 -17 0 0.0 0.0 0.00 0.13 0.00 1012.3
20260505011556 -17 0 0.0 3.2 0.00 0.13 0.00 1012.2
20260505004555 -17 360 3.2 6.4 0.00 0.13 0.00 1012.4
20260505003104 -17 360 1.6 4.8 0.00 0.13 0.00 1012.8
20260505001558 8 0 0.0 3.2 0.00 0.13 0.00 23 1013.0
20260505000112 8 0 0.0 3.2 0.00 0.13 0.00 23 1013.1
20260504234557 8 0 0.0 1.6 0.00 0.13 0.00 23 1013.2
20260504233105 8 0 0.0 0.0 0.00 0.13 0.00 23 1013.3
20260504231558 8 0 0.0 0.0 0.00 0.13 0.00 23 1013.4
20260504230059 8 0 0.0 0.0 0.00 0.13 0.00 23 1013.5
20260504224601 8 0 0.0 0.0 0.00 0.13 0.00 23 1013.7
20260504223058 8 0 0.0 1.6 0.00 0.13 0.00 23 1013.8
20260504221556 8 0 0.0 0.0 0.00 0.13 0.00 23 1013.8
20260504220118 8 0 0.0 0.0 0.00 0.13 0.00 23 1014.0
20260504214559 8 0 1.6 4.8 0.00 0.13 0.13 22 1013.8
20260504213100 8 360 1.6 4.8 0.00 0.13 0.13 22 1014.1
20260504211557 7 360 1.6 6.4 0.00 0.13 0.13 22 1014.2
20260504210058 7 360 1.6 4.8 0.00 0.13 0.13 21 1014.1
20260504204559 8 360 6.4 9.7 0.00 0.13 0.13 21 1014.3
20260504203055 8 360 6.4 8.0 0.00 0.13 0.13 21 1014.4
20260504201557 8 360 0.0 3.2 0.00 0.13 0.13 21 1014.4
20260504200101 8 3.2 6.4 0.00 0.13 0.13 21 1014.4
20260504194556 8 360 3.2 6.4 0.00 0.13 0.13 20 1014.7
20260504193100 9 360 3.2 6.4 0.00 0.13 0.13 20 1014.6
20260504191559 9 360 4.8 6.4 0.00 0.13 0.13 20 1014.5
20260504190110 10 360 0.0 3.2 0.00 0.13 0.13 20 1014.5
20260504184613 10 0 0.0 3.2 0.00 0.13 0.13 20 1014.6
20260504183059 10 0 0.0 1.6 0.00 0.13 0.13 20 1014.7
20260504181600 10 0 0.0 1.6 0.00 0.13 0.13 19 1014.7
20260504180057 10 0 0.0 0.0 0.00 0.13 0.13 19 1014.8
20260504174559 10 0 0.0 1.6 0.00 0.13 0.13 19 1014.9
20260504173103 10 0 0.0 1.6 0.00 0.13 0.13 19 1014.9
20260504171556 10 360 0.0 3.2 0.00 0.13 0.13 19 1015.0
20260504170105 10 0 1.6 6.4 0.00 0.13 0.13 19 1015.3
20260504081609 12 0 1.6 6.4 0.00 0.00 0.00 32 1015.0